STARLINK-2605, 48392

Orbit data source: Space-Track

STARLINK-2605, 48392 is a payload satellite owned by SpaceX/Seattle (US) in LEO that was launched on Tue, 04 May 2021 UTC via an FALCON 9 launch vehicle from the Air Force Eastern Test Range (AFETR). Payload-class satellites include a variety of spacecraft equipped with specific instruments for various scientific and technological missions. These include communications satellites like Starlink; space stations such as the ISS; scientific satellites like the Hubble; Earth observation satellites from companies like Planet Labs, Umbra, and HawkEye 360; GPS; miniature CubeSats for education and research; and military/defense satellites.

Loading next visibility...
Identifier
48392, 2021-038AR
Orbit
LEO
Country
Flag of USUS
Related business
Manufacturer
SpaceX/Seattle
Mission
Operational Commercial Communications
Bus & Motor
STARLINK, Unknown motor
Mass
260 kg wet, ~248 kg dry
Launch date (UTC)
2021-05-04 (5 years ago)
Launch vehicle
FALCON 9
Launch site
Air Force Eastern Test Range (AFETR)
Object type
Payload
Rocket body
Debris
Shape & HBR
Box + 1 Pan, 10.1 m
Radar Cross Section
13.562 m², Large (>1 m²)

Expand to show TLE details & history
Last TLE update: 2 days ago

TLE from 2 days ago
0 STARLINK-2605
1 48392U 21038AR  26171.38178348 -.00000282  00000-0  26613-5 0  9995
2 48392  53.1576 214.8063 0000965  81.3596 278.7514 15.31700039284390
Epoch: 2026-06-20T09:09Z
TLE epoch observation values (Epoch: 2026-06-20T09:09:46.092Z)
Latitude
-0.00008°
Longitude
168.76697°
Altitude
471.539 km
Speed
7.632 km/s
True Right ascension
14h 19m 13s
True Declination
0° 00' 00"
Sunlit
Object was in full shadow at epoch
Visualization orbit readout
Latitude
Unknown
Longitude
Unknown
Altitude
Unknown
Speed
Unknown
Apparent Right ascension
Unknown
Apparent Declination
Unknown
Sunlit
N/A
Visualization observer readout
Local Sidereal Time
21:28:10
Azimuth
Unknown
Elevation
Unknown
Doppler factor
Unknown
Orbital elements
Apogee altitude
471.658 km
Perigee altitude
470.336 km
Semi-major axis
6,849.134 km
Eccentricity
0.0001
Inclination
53.1576°
RAAN
214.8063°
Arg. of periapsis
81.3596°
True anomaly
278.74047°
Mean anomaly
278.7514°
Eccentric anomaly
278.74594°
Mean motion
3.82904 °/min
Orbital period
94.02 mins
BSTAR
0.0000026613
Loading maneuver chart data...
Computing Atmospheric mass density...

Documentation

Showing up to 5 results
|